#timestamp,LO_Frequency,Hit,StdDev 
1509177615.5,286047001.7,N
1509177635.3,286047005.3,N
1509177655.1,286047004.6,N
1509177675.9,286047007.3,N
1509177695.7,286047006.6,N
1509177715.5,286047002.3,N
1509177735.4,286047006.0,N
1509177755.2,286047003.6,N
1509177775.1,286047005.4,N
1509177776.0,286047005.4,N
1509177795.8,286047003.6,N
1509177815.6,286047001.7,N
1509177835.5,286047008.5,N
1509177855.3,286047008.1,N
1509177875.1,286047009.1,N
1509177895.9,286047006.9,N
1509177915.7,286047008.2,N
1509177935.5,286047004.5,N
1509177955.4,286047008.0,N
1509177975.2,286047012.0,N
1509177995.0,286047010.6,N
1509177995.9,286047010.6,N
1509178015.8,286047010.3,N
1509178035.6,286047008.0,N
1509178055.4,286047007.4,N
1509178075.3,286047005.7,N
1509178095.1,286047006.9,N
1509178115.9,286047003.0,N
1509178135.7,286047003.9,N
1509178155.5,286047003.1,N
1509178175.3,286047000.0,N
1509178195.2,286047000.4,N
1509178215.0,286047002.4,N
1509178215.9,286047002.4,N
1509178235.8,286047002.1,N
1509178255.6,286046997.8,N
1509178275.4,286047000.4,N
1509178295.3,286047003.0,N
1509178315.1,286047005.7,N
1509178335.8,286047002.1,N
1509178355.7,286047001.6,N
1509178375.5,286047006.0,N
1509178395.3,286046997.8,N
1509178415.2,286046998.8,N
1509178435.9,286046998.8,N
1509178455.7,286047005.0,N
1509178475.6,286047006.7,N
1509178495.4,286047007.4,N
1509178515.2,286047002.1,N
1509178535.1,286047001.2,N
1509178536.0,286047001.2,N
1509178555.8,286047004.6,N
1509178575.6,286047006.2,N
1509178595.5,286047003.3,N
1509178615.3,286047005.5,N
1509178635.1,286047001.5,N
1509178655.9,286047004.1,N
1509178675.7,286047005.1,N
1509178695.5,286047001.3,N
1509178715.4,286047000.2,N
1509178735.2,286046997.5,N
1509178755.0,286046998.4,N
1509178756.0,286046998.4,N
1509178775.8,286046997.7,N
1509178795.6,286046995.9,N
1509178815.4,286046996.8,N
1509178835.3,286046998.5,N
1509178855.1,286046993.7,N
1509178875.9,286046996.6,N
1509178895.7,286046998.1,N
1509178915.5,286046998.2,N
1509178935.4,286047000.5,N
1509178955.2,286047000.6,N
1509178975.0,286047001.1,N
1509178975.9,286047001.1,N
1509178995.8,286046998.0,N
1509179015.6,286046996.0,N
1509179035.4,286046999.0,N
1509179055.3,286047002.7,N
1509179075.1,286047000.0,N
1509179095.8,286046997.9,N
1509179115.7,286046998.2,N
1509179135.5,286046997.1,N
1509179155.3,286046993.6,N
1509179175.2,286046996.0,N
1509179195.0,286046997.4,N
1509179195.9,286046997.4,N
1509179215.8,286046997.7,N
1509179235.6,286046999.6,N
1509179255.4,286046995.4,N
1509179275.3,286046995.8,N
1509179295.1,286047001.0,N
1509179296.0,286047001.0,N
1509179315.8,286047000.0,N
1509179335.7,286046996.6,N
1509179355.5,286046995.0,N
1509179375.3,286046998.4,N
1509179395.2,286047000.3,N
1509179415.9,286047000.2,N
1509179435.7,286047001.1,N
1509179455.6,286047000.2,N
1509179475.4,286047001.1,N
1509179495.2,286046996.7,N
1509179515.1,286046997.7,N
1509179516.0,286046997.7,N
1509179535.8,286046992.3,Y
1509179555.6,286046992.5,P
1509179575.5,286046991.2,P
1509179595.3,286046994.3,N
1509179615.1,286046990.3,Y
1509179635.9,286046997.6,P
1509179655.7,286046997.8,N
1509179675.6,286046997.4,N
1509179695.4,286046994.5,Y
1509179715.2,286046999.4,P
1509179735.1,286046995.5,P
1509179736.0,286046995.5,N
1509179755.8,286046994.5,Y
1509179775.6,286047001.1,P
1509179795.5,286046998.5,N
1509179815.3,286047000.1,N
1509179835.1,286047000.3,N
1509179855.9,286046996.8,N
1509179875.7,286047000.7,N
1509179895.5,286047000.6,N
1509179915.4,286047000.0,N
1509179935.2,286047007.0,Y
1509179955.1,286047005.1,P
1509179956.0,286047005.1,N
1509179975.8,286047005.8,N
1509179995.6,286047006.9,N
1509180015.5,286047010.8,Y
1509180035.3,286047005.0,P
1509180055.1,286047001.5,P
1509180075.9,286046997.5,N
1509180095.7,286046995.3,N
1509180115.5,286046997.2,N
1509180135.4,286046995.3,N
1509180155.2,286046996.4,N
1509180175.0,286046994.9,N
1509180175.9,286046994.9,N
1509180195.8,286046997.9,N
1509180215.6,286046996.7,N
1509180235.4,286046996.4,N
1509180255.3,286046998.7,N
1509180275.1,286046998.4,N
1509180295.8,286046997.2,N
1509180315.7,286046999.0,N
1509180335.5,286047002.5,N
1509180355.3,286046999.3,N
1509180375.2,286046997.8,N
1509180395.0,286046998.0,N
1509180395.9,286046998.0,N
1509180415.7,286046995.5,N
1509180435.6,286046999.1,N
1509180455.4,286046999.2,N
1509180475.2,286046999.5,N
1509180495.1,286046996.0,N
1509180496.0,286046996.0,N
1509180515.8,286046993.6,N
1509180535.6,286046999.4,N
1509180555.5,286047000.5,N
1509180575.3,286047003.8,N
1509180595.1,286047003.9,N
1509180615.9,286047005.1,N
1509180635.7,286047007.2,N
1509180655.5,286047003.7,N
1509180675.4,286047004.7,N
1509180695.2,286047003.0,N
1509180715.0,286047004.4,N
1509180715.9,286047004.4,N
1509180735.8,286047001.0,N
1509180755.6,286046998.7,N
1509180775.4,286047002.6,N
1509180795.3,286047002.2,N
1509180815.1,286047001.3,N
1509180835.8,286046997.0,N
1509180855.7,286046996.4,N
1509180875.5,286046996.0,N
1509180895.3,286046995.9,N
1509180915.2,286046999.5,N
1509180935.0,286046999.5,N
1509180935.9,286046999.5,N
1509180955.7,286046999.4,N
1509180975.6,286047000.2,N
1509180995.4,286046997.3,N
1509181015.2,286046995.2,N
1509181035.1,286046990.6,N
1509181036.0,286046990.6,N
1509181055.8,286046990.8,N
1509181075.7,286046994.2,N
1509181095.5,286046997.4,N
1509181115.3,286047002.2,N
1509181135.1,286046998.3,N
1509181155.9,286047001.1,N
1509181175.7,286047005.1,N
1509181195.5,286047006.7,N
